GW2094 Weather Reports


time (UTC)temp
C
wind
direction
speed
KPH
gust
KPH
rain 1hr
cm
rain 24hr
cm
rain mn
cm
humidity
%
barometer
mb
20260506144557 23 0.0 0.0 0.00 0.00 0.00 21 1013.6
20260506143449 23 0.0 0.0 0.00 0.00 0.00 20 1013.6
20260506142343 23 0.0 0.0 0.00 0.00 0.00 22 1013.6
20260506141236 23 0.0 0.0 0.00 0.00 0.00 19 1013.6
20260506140129 23 0.0 0.0 0.00 0.00 0.00 19 1013.6
20260506135022 23 0.0 0.0 0.00 0.00 0.00 22 1013.8
20260506133915 23 0.0 0.0 0.00 0.00 0.00 19 1013.8
20260506131704 23 0.0 0.0 0.00 0.00 0.00 17 1013.9
20260506130557 23 0.0 0.0 0.00 0.00 0.00 18 1013.9
20260506125451 23 0.0 0.0 0.00 0.00 0.00 17 1014.0
20260506123240 24 0.0 0.0 0.00 0.00 0.00 15 1014.1
20260506122133 24 0.0 0.0 0.00 0.00 0.00 16 1014.1
20260506121026 25 0.0 0.0 0.00 0.00 0.00 17 1014.2
20260506115919 25 0.0 0.0 0.00 0.00 0.00 17 1014.3
20260506114812 26 0.0 0.0 0.00 0.00 0.00 10 1014.4
20260506113705 28 0.0 0.0 0.00 0.00 0.00 9 1014.4
20260506112559 28 0.0 0.0 0.00 0.00 0.00 10 1014.5
20260506111451 27 0.0 0.0 0.00 0.00 0.00 13 1014.5
20260506110345 27 0.0 0.0 0.00 0.00 0.00 14 1014.5
20260506105238 26 0.0 0.0 0.00 0.00 0.00 18 1014.6
20260506104131 26 0.0 0.0 0.00 0.00 0.00 18 1014.6
20260506103025 27 0.0 0.0 0.00 0.00 0.00 25 1014.8
20260506101918 26 0.0 0.0 0.00 0.00 0.00 5 1014.7
20260506095707 22 0.0 0.0 0.00 0.00 0.00 5 1014.9
20260506094600 22 0.0 0.0 0.00 0.00 0.00 5 1015.0
20260506093453 22 0.0 0.0 0.00 0.00 0.00 5 1015.1
20260506092346 22 0.0 0.0 0.00 0.00 0.00 5 1015.1
20260506091239 22 0.0 0.0 0.00 0.00 0.00 5 1015.2
20260506090131 21 0.0 0.0 0.00 0.00 0.00 5 1015.2
20260506085024 21 0.0 0.0 0.00 0.00 0.00 5 1015.2
20260506082813 20 0.0 0.0 0.00 0.00 0.00 5 1015.1
20260506081706 20 0.0 0.0 0.00 0.00 0.00 5 1015.2
20260506080559 19 0.0 0.0 0.00 0.00 0.00 5 1015.1
20260506073242 18 0.0 0.0 0.00 0.00 0.00 5 1015.1
20260506072135 18 0.0 0.0 0.00 0.00 0.00 5 1015.1
20260506071029 17 0.0 0.0 0.00 0.00 0.00 5 1015.1
20260506061454 15 0.0 0.0 0.00 0.00 0.00 5 1015.2
20260506060346 15 0.0 0.0 0.00 0.00 0.00 5 1015.1
20260506050815 12 0.0 0.0 0.00 0.00 0.00 5 1015.2
20260506044605 12 0.0 0.0 0.00 0.00 0.00 5 1015.0
20260506043457 11 0.0 0.0 0.00 0.00 0.00 5 1014.9
20260506042351 11 0.0 0.0 0.00 0.00 0.00 1014.7
20260506040140 11 0.0 0.0 0.00 0.00 0.00 5 1014.7
20260506033930 10 0.0 0.0 0.00 0.00 0.00 5 1014.7
20260506031719 11 0.0 0.0 0.00 0.00 0.00 1014.6
20260506030612 11 0.0 0.0 0.00 0.00 0.00 1014.6
20260506025506 11 0.0 0.0 0.00 0.00 0.00 1014.5
20260506023252 11 0.0 0.0 0.00 0.00 0.00 1014.4
20260506021041 11 0.0 0.0 0.00 0.00 0.00 5 1014.4
20260506015935 11 0.0 0.0 0.00 0.00 0.00 5 1014.3
20260506014828 11 0.0 0.0 0.00 0.00 0.00 1014.4
20260506013722 11 0.0 0.0 0.00 0.00 0.00 5 1014.4
20260506012614 11 0.0 0.0 0.00 0.00 0.00 5 1014.3
20260506011508 11 0.0 0.0 0.00 0.00 0.00 5 1014.4
20260506010401 12 0.0 0.0 0.00 0.00 0.00 5 1014.3
20260506005253 12 0.0 0.0 0.00 0.00 0.00 5 1014.3
20260506004146 12 0.0 0.0 0.00 0.00 0.00 5 1014.3
20260506003039 12 0.0 0.0 0.00 0.00 0.00 5 1014.3
20260505235725 12 0.0 0.0 0.00 0.00 0.00 5 1014.2
20260505233515 13 0.0 0.0 0.00 0.00 0.00 5 1014.1
20260505231304 13 0.0 0.0 0.00 0.00 0.00 5 1014.2
20260505230157 13 0.0 0.0 0.00 0.00 0.00 5 1014.4
20260505225050 13 0.0 0.0 0.00 0.00 0.00 5 1014.4
20260505223943 13 0.0 0.0 0.00 0.00 0.00 5 1014.4
20260505222836 13 0.0 0.0 0.00 0.00 0.00 5 1014.3
20260505220625 14 0.0 0.0 0.00 0.00 0.00 5 1014.2
20260505215518 14 0.0 0.0 0.00 0.00 0.00 5 1014.1
20260505214412 14 0.0 0.0 0.00 0.00 0.00 5 1014.1
20260505213304 14 0.0 0.0 0.00 0.00 0.00 5 1014.0
20260505212158 14 0.0 0.0 0.00 0.00 0.00 5 1014.1
20260505211050 15 0.0 0.0 0.00 0.00 0.00 5 1014.0
20260505205943 15 0.0 0.0 0.00 0.00 0.00 5 1014.1
20260505204837 15 0.0 0.0 0.00 0.00 0.00 5 1014.1
20260505203729 15 0.0 0.0 0.00 0.00 0.00 5 1014.0
20260505202623 16 0.0 0.0 0.00 0.00 0.00 5 1014.1
20260505201516 16 0.0 0.0 0.00 0.00 0.00 5 1014.0
20260505194201 16 0.0 0.0 0.00 0.00 0.00 5 1013.9
20260505193054 16 0.0 0.0 0.00 0.00 0.00 5 1013.8
20260505191947 17 0.0 0.0 0.00 0.00 0.00 5 1013.7
20260505190840 17 0.0 0.0 0.00 0.00 0.00 5 1013.7
20260505185733 17 0.0 0.0 0.00 0.00 0.00 5 1013.7
20260505184627 17 0.0 0.0 0.00 0.00 0.00 5 1013.7
20260505183520 17 0.0 0.0 0.00 0.00 0.00 5 1013.7
20260505182414 18 0.0 0.0 0.00 0.00 0.00 5 1013.6
20260505181306 18 0.0 0.0 0.00 0.00 0.00 5 1013.6
20260505180159 18 0.0 0.0 0.00 0.00 0.00 5 1013.6
20260505175052 18 0.0 0.0 0.00 0.00 0.00 5 1013.4
20260505173945 19 0.0 0.0 0.00 0.00 0.00 5 1013.4
20260505172838 19 0.0 0.0 0.00 0.00 0.00 5 1013.3
20260505171731 20 0.0 0.0 0.00 0.00 0.00 5 1013.2
20260505170624 20 0.0 0.0 0.00 0.00 0.00 5 1013.2
20260505165517 21 0.0 0.0 0.00 0.00 0.00 27 1013.2
20260505164409 21 0.0 0.0 0.00 0.00 0.00 21 1013.3
20260505163303 22 0.0 0.0 0.00 0.00 0.00 18 1013.3
20260505161052 22 0.0 0.0 0.00 0.00 0.00 22 1013.2
20260505152628 23 0.0 0.0 0.00 0.00 0.00 26 1013.1
20260505151522 23 0.0 0.0 0.00 0.00 0.00 25 1013.1
20260505150415 23 0.0 0.0 0.00 0.00 0.00 26 1013.2